Temp
63 63 64 64 63 64 64 64 64 64 64 64 64 63 63 63 63 59 60 66 67 70 69 64 66 64 63 60 59 56 49 45 49 50 54 58 58 61 61 62 63 64 64 59 58
63 63 63 63 63 63 63 63 63 63 63 64 64 63 63 63 58 59 68 72 71 70 65 63 60 62 58 57 56 52 47 51 54 55 55 57 57 58 60 59 60 62 59 56 55
62 62 63 63 63 63 63 63 63 63 63 63 63 63 63 59 59 60 70 72 70 68 65 64 63 61 55 56 54 51 50 52 55 57 57 56 56 58 57 55 60 59 55 52 52
62 62 62 62 63 63 63 63 63 63 63 63 63 63 62 58 50 61 69 70 70 66 65 62 60 55 52 51 54 50 53 54 56 56 56 54 57 57 56 58 55 51 51 49 48
61 61 61 61 62 63 63 63 63 63 63 63 63 63 59 56 60 63 67 67 64 64 62 60 57 55 51 52 53 50 52 54 56 55 54 54 55 55 55 52 51 50 48 46 46
61 61 61 61 61 62 62 63 63 62 62 63 63 62 56 52 62 64 64 64 63 62 59 60 59 58 54 52 52 53 52 54 55 55 54 54 52 55 53 51 49 47 45 45 45
61 60 60 60 61 61 62 62 62 62 62 63 63 59 54 60 62 63 64 61 62 63 60 60 61 58 56 51 53 52 50 52 52 52 53 54 49 51 54 51 46 44 43 44 44
60 60 60 60 61 61 61 61 61 62 62 63 63 56 55 61 60 63 62 61 62 63 62 60 61 58 55 54 52 48 47 44 51 51 51 53 48 51 53 51 44 42 42 42 43
60 59 60 60 60 60 61 61 61 62 63 63 54 53 54 63 58 60 60 60 59 60 60 64 58 52 53 47 44 43 41 41 47 51 50 50 48 50 51 47 42 41 41 42 42
59 59 59 60 60 60 60 61 61 60 60 60 61 51 56 55 57 59 57 60 57 56 56 55 49 45 43 44 38 40 39 40 42 48 48 46 49 48 44 44 40 39 40 40 41
60 59 60 60 60 60 59 54 53 51 50 54 53 53 55 56 58 55 58 58 56 53 46 46 44 42 44 46 45 43 41 42 43 48 46 46 46 49 42 40 38 38 39 39 40
60 60 60 60 60 60 58 51 53 54 48 55 53 55 57 58 53 54 59 54 50 45 45 43 40 47 47 46 45 41 40 40 43 46 45 43 44 45 41 40 40 38 38 39 39
59 59 59 59 60 58 56 54 57 53 46 52 52 53 54 57 54 52 57 52 47 42 42 41 46 47 47 42 42 39 39 38 42 42 42 40 40 39 38 38 39 39 39 39 39
59 59 59 59 56 57 54 59 58 55 40 44 49 52 53 55 49 54 56 53 45 45 42 42 46 46 42 42 43 37 43 43 41 39 35 39 33 38 36 35 36 36 36 37 38
59 59 59 60 54 54 57 57 57 56 28 46 45 54 52 51 48 47 53 52 43 44 45 43 42 41 41 43 45 41 42 41 39 36 34 35 32 37 36 35 34 35 35 36 37
59 58 58 57 56 55 56 58 58 41 30 41 44 45 46 47 46 47 49 52 49 43 41 43 44 45 46 44 45 43 40 38 34 33 27 35 36 34 35 38 34 35 35 36 36
58 58 57 61 55 57 57 55 40 33 45 39 39 43 42 41 42 44 42 40 38 34 34 38 41 44 45 41 42 40 38 29 27 26 27 31 30 36 40 39 39 37 36 36 36
58 58 58 60 59 59 54 46 34 41 40 41 41 40 40 42 40 41 39 37 41 38 34 33 32 42 45 44 40 37 39 30 23 22 26 29 28 38 36 36 37 39 38 37 35
57 56 56 59 59 57 48 38 37 40 46 42 41 35 35 39 39 37 36 36 43 42 41 34 36 41 42 43 45 38 35 39 27 15 22 31 34 38 35 34 33 34 35 35 35
55 54 55 59 58 54 44 40 42 48 46 45 42 41 34 36 37 36 35 40 41 45 45 42 35 38 39 42 40 40 42 33 30 22 19 28 30 35 34 34 31 32 35 36 36
54 49 55 59 56 49 39 41 46 49 50 45 44 41 39 37 41 34 37 40 43 42 48 42 39 34 38 37 37 36 35 34 35 31 23 19 28 37 39 36 32 33 36 36 36
52 45 51 57 45 47 42 44 48 49 49 48 46 46 41 42 41 36 37 42 46 45 41 44 38 28 33 35 36 36 37 36 31 26 24 25 30 35 36 37 36 36 37 37 38
46 45 50 53 41 42 46 46 48 46 48 48 46 47 45 45 40 39 37 43 44 46 43 42 35 25 30 33 33 33 35 35 34 31 22 25 28 36 34 34 34 35 35 36 36
45 39 43 45 44 44 43 43 43 46 47 49 47 47 44 42 47 39 38 39 42 44 47 48 35 35 36 34 35 31 32 34 35 24 29 31 31 33 35 35 34 35 36 35 36
45 41 42 37 41 43 43 42 41 39 43 46 41 45 45 40 43 42 39 37 39 44 42 43 36 33 32 35 34 33 32 32 32 37 32 36 34 35 40 39 37 38 34 34 35
40 39 40 39 44 42 43 39 39 42 41 39 40 43 45 43 43 39 42 37 38 37 38 37 32 32 29 32 32 29 33 33 34 35 37 33 33 40 41 35 34 35 34 34 35
39 40 41 40 39 39 40 40 40 44 42 45 43 39 38 41 41 39 39 39 39 37 34 33 30 30 29 26 28 27 30 31 30 30 36 29 38 31 34 35 34 34 35 37 36
MSLP
1019.73 1019.66 1019.70 1019.57 1019.52 1019.42 1019.38 1019.27 1019.10 1018.98 1018.92 1018.78 1018.51 1018.21 1017.91 1017.59 1017.15 1017.22 1016.89 1016.55 1016.31 1016.21 1016.20 1016.29 1016.44 1016.80 1017.08 1018.11 1018.64 1019.31 1020.29 1020.90 1020.49 1020.24 1019.51 1019.29 1019.04 1018.81 1019.02 1019.06 1019.13 1019.36 1020.34 1021.63 1021.42
1019.69 1019.70 1019.69 1019.62 1019.59 1019.55 1019.49 1019.39 1019.27 1019.10 1018.90 1018.56 1018.20 1017.87 1017.63 1017.43 1017.25 1016.94 1016.62 1016.28 1016.20 1016.26 1016.34 1016.54 1016.91 1017.05 1017.91 1018.53 1019.00 1019.53 1020.47 1020.08 1019.72 1019.51 1019.41 1019.40 1019.31 1019.22 1019.48 1019.75 1019.92 1020.37 1021.38 1022.11 1022.02
1019.52 1019.60 1019.61 1019.70 1019.64 1019.65 1019.58 1019.46 1019.28 1019.07 1018.85 1018.46 1018.06 1017.79 1017.61 1017.44 1017.26 1016.73 1016.35 1016.23 1016.28 1016.32 1016.40 1016.66 1016.99 1017.37 1018.24 1018.63 1019.24 1019.55 1019.76 1019.65 1019.33 1019.27 1019.34 1019.56 1019.52 1019.46 1019.81 1020.48 1020.79 1021.56 1022.51 1022.91 1022.99
1019.45 1019.46 1019.51 1019.52 1019.62 1019.53 1019.54 1019.39 1019.21 1018.92 1018.64 1018.35 1017.98 1017.71 1017.42 1017.34 1017.34 1016.48 1016.28 1016.20 1016.28 1016.36 1016.56 1016.92 1017.32 1017.89 1018.63 1019.00 1019.22 1019.52 1019.60 1019.54 1019.22 1019.27 1019.42 1019.60 1019.63 1019.88 1020.32 1021.18 1021.82 1022.70 1023.41 1023.77 1023.86
1019.30 1019.39 1019.37 1019.45 1019.43 1019.33 1019.26 1019.18 1019.03 1018.82 1018.49 1018.24 1018.00 1017.70 1017.36 1017.40 1016.81 1016.37 1016.35 1016.37 1016.40 1016.47 1016.82 1017.17 1017.57 1018.10 1018.72 1019.11 1019.35 1019.54 1019.65 1019.62 1019.32 1019.35 1019.46 1019.67 1019.80 1020.22 1021.15 1022.18 1022.98 1023.57 1024.04 1024.53 1024.80
1019.05 1019.17 1019.25 1019.26 1019.26 1019.17 1019.09 1018.99 1018.82 1018.69 1018.51 1018.18 1017.93 1017.82 1017.76 1017.50 1016.37 1016.34 1016.40 1016.48 1016.57 1016.70 1017.01 1017.15 1017.58 1018.00 1018.78 1019.20 1019.44 1019.56 1019.61 1019.59 1019.31 1019.28 1019.40 1019.66 1020.04 1020.53 1021.95 1022.74 1023.68 1024.35 1025.04 1025.42 1025.51
1018.79 1018.92 1019.03 1019.11 1019.05 1018.97 1018.88 1018.81 1018.71 1018.50 1018.39 1018.14 1017.93 1017.95 1017.78 1016.89 1016.27 1016.34 1016.37 1016.65 1016.69 1016.72 1017.13 1017.31 1017.56 1018.04 1018.73 1019.48 1019.67 1019.83 1019.98 1019.73 1019.31 1019.30 1019.36 1019.59 1020.51 1020.89 1021.81 1023.06 1024.22 1025.12 1025.61 1025.89 1026.05
1018.54 1018.64 1018.73 1018.82 1018.85 1018.78 1018.72 1018.66 1018.54 1018.32 1018.17 1018.11 1018.07 1018.09 1017.27 1016.34 1016.42 1016.45 1016.51 1016.87 1016.94 1016.96 1017.14 1017.44 1017.59 1018.41 1019.05 1019.71 1020.22 1020.39 1020.46 1020.35 1019.46 1019.34 1019.32 1019.71 1020.51 1021.31 1022.01 1022.96 1024.48 1025.33 1025.91 1026.17 1026.31
1018.14 1018.30 1018.42 1018.54 1018.58 1018.64 1018.56 1018.45 1018.33 1018.19 1018.14 1018.07 1018.19 1017.99 1017.12 1016.41 1016.55 1016.54 1016.49 1016.94 1017.23 1017.48 1017.70 1017.79 1018.18 1019.43 1019.81 1020.40 1021.13 1021.33 1021.02 1020.81 1019.97 1019.46 1019.55 1019.91 1020.67 1021.76 1022.52 1023.40 1024.92 1025.76 1026.22 1026.48 1026.55
1017.74 1017.86 1018.08 1018.25 1018.46 1018.41 1018.40 1018.23 1018.13 1018.19 1018.24 1018.24 1018.08 1018.27 1016.85 1016.41 1016.42 1016.60 1016.70 1016.92 1017.54 1017.94 1018.29 1018.77 1019.70 1020.30 1020.82 1020.97 1021.28 1021.27 1021.42 1020.94 1020.40 1019.94 1019.92 1020.39 1020.79 1022.14 1023.28 1024.12 1025.47 1026.35 1026.76 1027.02 1027.16
1017.12 1017.46 1017.66 1017.92 1018.22 1018.32 1018.35 1018.32 1018.61 1018.57 1018.28 1017.11 1016.77 1016.47 1016.20 1016.45 1016.48 1016.81 1016.84 1017.16 1017.71 1018.49 1019.20 1019.76 1020.34 1020.25 1019.92 1020.17 1020.44 1020.75 1021.12 1020.91 1020.37 1020.07 1020.33 1020.73 1021.38 1021.89 1023.66 1024.79 1025.83 1026.55 1027.04 1027.43 1027.65
1016.46 1016.87 1017.30 1017.61 1017.95 1018.12 1018.28 1018.17 1017.49 1017.63 1017.36 1016.35 1016.58 1016.41 1016.01 1015.99 1016.59 1016.91 1016.95 1017.43 1018.03 1018.98 1019.73 1020.54 1020.12 1019.54 1019.91 1020.50 1020.82 1021.15 1021.42 1021.25 1020.79 1020.55 1020.89 1021.14 1021.77 1022.51 1023.94 1025.06 1025.93 1026.68 1027.21 1027.50 1027.82
1015.76 1016.32 1016.82 1017.43 1017.78 1017.99 1017.88 1017.55 1017.10 1017.24 1017.57 1016.09 1015.82 1015.69 1015.73 1016.00 1016.00 1016.49 1016.85 1017.44 1018.11 1019.15 1019.64 1019.80 1019.29 1019.20 1019.89 1020.62 1021.16 1021.32 1021.46 1021.45 1021.31 1021.22 1021.38 1021.80 1022.13 1022.83 1024.23 1025.22 1026.11 1026.79 1027.28 1027.73 1027.80
1015.02 1015.78 1016.35 1017.14 1018.07 1017.31 1017.28 1016.59 1016.96 1017.22 1017.48 1015.88 1015.47 1014.64 1015.08 1015.46 1016.20 1016.14 1016.38 1016.85 1018.10 1018.52 1019.60 1019.79 1019.15 1019.44 1019.83 1020.34 1020.68 1021.07 1020.86 1021.25 1021.72 1022.12 1022.31 1022.25 1022.58 1022.62 1023.81 1025.11 1026.03 1026.74 1027.26 1027.85 1028.33
1014.24 1015.09 1015.75 1016.16 1016.34 1016.68 1015.88 1016.00 1016.74 1017.37 1017.25 1014.76 1015.16 1015.07 1015.12 1015.69 1016.01 1016.61 1016.56 1016.72 1017.56 1018.34 1019.15 1018.70 1019.01 1019.30 1019.52 1019.51 1020.15 1020.54 1020.74 1021.49 1022.03 1022.53 1022.79 1022.91 1023.55 1022.19 1023.40 1024.39 1025.33 1026.61 1027.53 1027.95 1028.35
1013.38 1014.19 1014.98 1015.75 1016.07 1015.86 1015.78 1016.01 1016.64 1017.85 1015.28 1014.81 1014.99 1015.18 1015.68 1016.04 1016.40 1016.95 1016.93 1016.93 1017.38 1018.33 1018.75 1018.63 1018.52 1018.66 1018.65 1019.23 1019.62 1020.64 1021.29 1022.33 1023.05 1023.55 1023.47 1022.17 1022.64 1022.09 1022.37 1021.95 1023.65 1025.21 1026.76 1027.60 1028.26
1012.12 1013.19 1014.04 1014.32 1014.50 1015.31 1015.80 1016.29 1017.07 1016.03 1013.34 1014.32 1014.73 1015.12 1015.54 1016.22 1016.78 1016.88 1017.35 1017.42 1017.58 1018.51 1018.84 1018.73 1018.39 1018.20 1018.35 1019.33 1020.00 1020.43 1021.33 1022.97 1024.03 1024.19 1023.03 1022.40 1022.85 1020.73 1020.83 1021.57 1022.59 1023.71 1025.04 1026.48 1027.73
1010.63 1011.86 1012.46 1013.08 1013.58 1014.58 1015.65 1016.22 1015.13 1011.73 1013.00 1013.64 1014.15 1015.14 1015.77 1016.12 1016.68 1017.10 1017.38 1017.67 1017.37 1017.33 1018.25 1018.47 1018.21 1017.63 1017.66 1017.83 1018.64 1019.87 1020.21 1021.08 1022.42 1023.83 1023.43 1023.12 1022.01 1020.48 1021.08 1021.92 1023.00 1024.02 1024.88 1026.05 1027.37
1010.16 1009.93 1010.96 1011.87 1012.79 1013.76 1014.64 1013.90 1011.88 1010.98 1011.41 1012.80 1014.24 1014.99 1015.56 1015.78 1016.16 1017.10 1017.26 1016.91 1016.22 1016.30 1016.78 1017.32 1017.24 1016.86 1017.12 1017.37 1017.85 1019.54 1019.91 1019.90 1021.59 1023.92 1023.64 1021.81 1021.00 1020.53 1021.53 1022.49 1023.17 1023.86 1025.02 1025.72 1026.63
1009.08 1009.45 1008.94 1010.35 1011.65 1012.39 1012.40 1011.08 1010.48 1009.93 1010.46 1011.52 1012.34 1012.89 1013.91 1015.09 1015.93 1016.59 1016.50 1015.12 1015.15 1014.93 1014.87 1015.71 1016.70 1017.11 1017.37 1017.49 1018.05 1018.14 1018.54 1020.03 1021.00 1022.48 1022.55 1021.17 1020.74 1020.21 1021.19 1022.08 1023.35 1024.01 1024.40 1025.10 1025.93
1008.28 1008.38 1007.64 1009.09 1010.45 1010.06 1009.67 1009.10 1009.52 1009.23 1009.39 1010.51 1011.03 1011.71 1012.42 1013.32 1014.14 1015.00 1014.66 1014.26 1014.01 1014.36 1014.66 1015.26 1015.93 1017.66 1017.66 1017.47 1017.32 1018.34 1018.50 1019.31 1019.98 1020.83 1021.07 1021.10 1019.70 1018.82 1019.64 1020.85 1022.28 1023.21 1023.77 1024.42 1025.30
1007.14 1007.21 1007.85 1008.14 1008.29 1007.57 1008.01 1008.15 1008.26 1008.40 1009.26 1009.52 1009.73 1010.24 1011.05 1012.01 1012.49 1013.38 1013.42 1012.76 1012.56 1013.23 1014.45 1014.25 1015.27 1017.01 1017.05 1017.13 1017.26 1017.12 1017.36 1017.77 1018.97 1020.29 1020.76 1020.70 1018.97 1018.73 1019.28 1019.90 1020.95 1022.02 1022.88 1023.68 1024.16
1007.00 1007.07 1007.48 1007.17 1006.74 1007.09 1007.52 1007.73 1008.21 1008.16 1008.34 1008.78 1009.06 1009.30 1009.86 1010.64 1011.58 1011.55 1011.90 1011.80 1012.13 1012.45 1012.69 1013.55 1014.60 1016.46 1017.31 1017.77 1017.70 1017.43 1017.21 1017.34 1017.85 1018.51 1019.07 1020.18 1018.67 1019.04 1019.33 1020.04 1020.70 1021.39 1022.40 1023.11 1023.78
1007.20 1007.56 1007.45 1007.41 1006.88 1006.60 1006.97 1007.01 1007.37 1007.71 1007.88 1007.91 1007.88 1009.01 1009.42 1009.56 1009.94 1010.50 1011.48 1011.85 1012.05 1012.20 1012.09 1012.48 1013.56 1013.84 1013.82 1014.40 1015.26 1016.82 1016.92 1017.15 1017.32 1018.25 1018.11 1017.26 1018.08 1018.96 1019.19 1019.74 1020.41 1020.96 1021.72 1022.45 1023.19
1006.21 1006.60 1006.92 1006.73 1006.40 1006.61 1006.48 1006.54 1006.95 1007.51 1008.01 1007.88 1008.16 1007.78 1008.36 1009.27 1009.81 1010.12 1011.36 1012.06 1012.63 1012.56 1012.57 1012.52 1013.40 1014.03 1014.27 1014.50 1014.84 1015.28 1015.93 1016.63 1016.71 1016.56 1016.80 1016.59 1017.03 1017.67 1018.06 1018.67 1019.21 1019.55 1021.26 1022.19 1022.86
1005.93 1006.27 1007.10 1006.89 1005.98 1006.33 1006.21 1006.32 1006.98 1007.32 1007.66 1008.02 1007.88 1008.21 1008.50 1008.38 1008.80 1009.62 1010.59 1011.49 1011.70 1012.99 1013.14 1013.30 1013.71 1014.18 1015.26 1015.53 1015.68 1015.81 1015.38 1015.64 1016.27 1016.27 1016.20 1016.49 1016.30 1016.46 1017.13 1018.20 1019.02 1019.83 1020.91 1021.70 1022.27
1006.80 1006.75 1006.23 1006.33 1006.07 1006.02 1005.48 1005.85 1005.93 1007.08 1007.69 1007.79 1008.21 1008.91 1009.03 1009.13 1009.86 1010.41 1010.60 1011.08 1011.69 1012.12 1013.36 1013.94 1014.07 1014.75 1015.48 1016.28 1016.65 1016.65 1014.88 1015.57 1015.57 1015.76 1015.64 1016.48 1015.62 1016.92 1017.50 1018.02 1018.64 1019.64 1020.29 1020.88 1021.73
Wind_Speed
2 3 4 4 5 6 7 7 8 8 8 9 9 9 9 10 8 1 1 1 2 3 1 2 5 4 5 4 4 3 6 3 6 6 3 1 1 1 1 1 4 2 5 5 9
1 3 4 5 5 6 7 7 8 8 9 10 10 10 10 10 2 1 3 3 1 4 3 3 2 4 4 3 4 5 4 7 5 4 4 1 1 2 2 4 2 2 7 9 10
1 2 3 5 5 6 6 7 7 8 10 10 9 9 9 4 2 1 5 2 3 0 3 3 4 4 4 3 3 2 4 4 3 4 4 4 1 1 2 2 3 1 3 8 11
2 2 3 4 5 5 7 7 8 8 10 11 10 10 9 2 1 1 2 1 5 4 3 4 5 4 3 2 2 2 1 2 1 2 3 3 3 3 3 3 7 9 6 5 12
4 4 3 4 5 5 6 8 9 9 10 10 10 9 3 4 5 1 3 4 4 2 3 4 3 3 4 4 3 2 0 2 3 4 3 3 4 3 3 7 8 9 11 11 9
6 5 5 5 5 5 6 8 9 9 10 9 8 6 2 3 2 3 5 4 4 3 2 3 6 4 5 3 4 3 2 4 5 3 3 5 2 4 3 7 10 11 10 9 10
7 7 6 6 6 5 6 7 9 8 9 8 4 1 2 10 2 3 3 2 2 3 4 2 6 3 5 4 1 3 3 6 2 1 3 6 2 4 6 7 8 8 7 8 8
9 8 7 7 6 5 6 8 9 9 3 1 1 1 7 1 2 4 3 3 3 4 4 3 4 6 4 4 6 2 4 3 2 1 1 4 4 1 5 5 6 6 6 7 9
10 8 8 7 6 6 6 8 8 3 0 2 0 1 8 3 3 2 2 6 4 3 6 4 6 4 4 6 4 6 3 4 7 1 1 2 5 5 5 6 6 5 5 6 6
11 9 9 8 6 5 6 6 3 2 1 1 0 2 2 4 3 3 2 5 5 4 4 7 6 4 3 4 6 7 4 4 5 3 2 2 8 5 4 5 5 4 4 6 7
12 11 10 8 6 3 3 2 2 2 1 9 6 3 4 2 2 2 2 5 4 6 5 2 4 9 13 9 3 6 4 5 3 3 3 6 6 6 4 5 6 5 5 5 6
13 12 11 8 7 5 3 3 3 3 6 9 4 5 3 5 4 3 5 6 5 6 6 4 8 8 5 5 4 4 4 6 5 3 3 5 9 3 1 2 3 6 5 5 4
14 13 11 9 7 4 3 5 2 2 2 7 7 6 6 8 7 10 10 5 5 7 8 9 4 8 8 4 6 5 7 5 6 1 2 1 7 4 1 3 4 3 4 3 5
16 14 13 11 5 5 5 7 5 1 3 8 6 6 5 8 4 2 5 6 3 12 9 6 3 6 4 6 8 6 9 7 5 4 5 1 6 4 4 4 5 6 6 5 4
19 17 17 18 6 6 4 8 8 3 7 3 3 0 3 6 7 1 1 4 9 8 8 8 8 6 5 8 8 6 6 7 4 4 2 3 1 8 4 7 9 8 6 6 5
20 20 21 13 2 3 6 8 4 5 15 4 4 5 6 1 2 3 3 4 4 5 1 4 1 6 8 3 6 9 7 7 5 3 2 8 8 5 7 8 6 9 9 10 7
23 22 18 10 10 7 5 3 4 11 1 7 7 7 4 6 3 5 7 7 8 7 6 1 5 3 5 6 3 2 7 1 2 1 7 2 3 8 5 5 5 16 15 11 8
26 25 20 12 9 12 4 4 11 8 9 3 5 4 7 7 4 6 7 7 6 4 4 7 6 12 8 8 10 8 8 7 9 5 3 2 7 7 2 3 1 6 13 12 10
23 13 10 14 13 11 9 16 16 7 8 12 4 4 5 4 6 5 7 7 11 12 11 8 7 1 2 4 7 7 7 4 8 2 3 5 5 3 2 2 3 9 12 14 11
7 7 13 20 17 14 13 20 14 9 8 5 19 10 13 9 8 8 11 8 8 15 3 7 2 1 3 3 3 4 8 3 3 3 6 3 4 5 6 8 6 10 15 13 11
6 4 6 20 15 12 17 16 19 6 7 9 13 10 7 11 10 7 9 1 7 11 11 6 4 1 4 7 11 4 4 2 4 4 6 2 6 6 8 10 15 13 13 14 13
4 7 2 18 13 8 18 15 9 22 8 10 5 10 11 12 12 13 16 10 9 13 16 11 5 5 8 2 2 2 8 8 6 6 2 2 7 1 4 8 12 13 14 12 12
2 2 2 10 13 13 9 16 16 13 16 18 15 8 5 13 8 10 9 6 10 17 18 12 5 3 5 3 1 6 6 4 5 4 9 6 6 1 1 4 6 11 11 11 10
5 2 2 3 2 9 17 15 16 4 7 10 5 6 5 10 9 6 9 4 5 8 6 13 5 10 16 6 8 8 8 7 7 4 7 11 5 6 6 8 7 8 9 10 10
4 4 2 4 9 11 5 8 9 7 5 6 4 19 20 13 17 18 4 4 2 4 4 7 12 5 1 2 6 6 10 13 14 13 10 9 13 10 12 13 13 11 7 9 9
5 5 3 2 9 17 14 12 14 13 9 5 13 13 15 22 21 17 14 8 8 4 7 1 5 4 5 0 1 3 10 11 12 11 14 4 10 7 6 6 7 9 10 9 8
0 3 2 5 4 10 14 18 19 16 6 7 11 4 5 7 4 3 5 7 5 7 6 8 7 7 7 4 4 6 10 12 6 5 12 12 12 6 5 7 8 9 11 14 7
Wind_Direction
58 44 27 31 20 17 11 10 10 4 357 343 336 335 335 336 323 104 344 313 254 175 90 101 47 26 43 68 57 123 66 150 185 156 190 325 113 299 27 4 1 8 59 353 351
3 9 5 10 8 7 2 2 357 356 349 345 341 339 342 342 33 353 337 325 4 154 84 102 75 49 47 57 28 80 103 205 188 189 156 119 161 285 100 3 5 68 43 25 28
286 343 355 352 355 353 352 350 348 349 348 346 342 337 334 323 355 272 330 319 161 108 96 90 91 67 61 39 19 144 162 188 221 196 148 144 245 211 147 117 229 25 60 23 32
267 307 331 337 334 342 341 343 344 344 348 345 338 334 329 299 273 222 340 135 153 103 83 85 47 67 91 95 34 79 106 189 311 144 134 165 168 267 152 123 81 81 77 47 37
264 285 296 307 314 328 335 337 340 340 343 341 334 339 354 23 256 152 91 110 116 99 113 123 98 121 128 127 100 115 318 195 285 274 244 98 234 239 51 98 90 76 57 47 38
252 268 283 291 299 314 327 331 333 334 333 331 331 331 79 243 121 118 126 122 138 117 116 121 163 170 111 126 140 185 240 267 276 233 227 182 184 147 155 125 78 68 59 46 38
247 255 266 277 287 302 317 320 321 321 322 326 339 13 112 237 113 135 129 86 146 139 135 134 138 110 128 119 97 117 304 324 296 287 230 153 125 209 121 113 87 75 74 61 42
244 252 258 264 279 293 305 314 319 314 297 6 358 333 240 66 154 127 122 71 64 40 98 108 113 100 87 121 29 67 52 355 284 292 355 148 248 126 161 117 89 78 60 54 40
234 243 251 257 265 283 301 312 319 349 164 327 297 165 263 140 154 145 124 136 88 44 43 70 64 92 51 98 20 8 225 213 313 259 139 166 248 148 10 104 101 70 60 58 43
225 230 237 244 257 271 298 293 295 352 302 277 45 21 181 210 146 118 50 106 109 99 51 48 53 82 51 115 215 194 207 236 229 203 147 175 263 141 24 100 112 95 70 58 49
213 221 223 225 233 242 338 18 7 297 224 197 199 198 137 106 128 80 142 91 94 67 151 25 119 209 196 196 129 139 169 218 215 235 163 222 251 283 111 99 129 134 113 82 48
206 208 212 208 204 190 137 197 213 149 303 228 229 280 188 176 118 185 128 135 141 161 118 57 229 210 137 139 152 140 159 246 292 218 151 267 257 240 71 148 168 157 141 119 101
199 198 195 192 184 181 201 220 136 167 243 277 193 187 192 150 208 189 149 145 142 139 188 172 214 144 139 147 170 205 191 197 214 42 198 341 276 214 65 99 115 126 134 135 136
195 190 176 160 185 146 216 215 168 161 280 255 223 246 131 144 223 114 181 144 168 185 157 227 232 160 162 188 164 215 198 172 166 128 232 142 274 281 178 178 188 172 170 165 160
193 185 169 174 144 177 215 141 138 68 282 247 153 20 147 170 135 315 180 45 160 167 140 231 170 178 183 203 160 233 133 159 139 150 118 224 139 259 154 227 198 199 193 184 187
193 182 171 193 162 240 142 133 112 75 242 191 129 156 130 132 84 119 125 51 136 114 307 237 161 163 194 126 164 151 80 56 57 96 256 217 180 247 203 207 158 163 184 187 185
189 182 175 171 194 153 147 137 102 215 160 188 180 168 163 159 151 150 168 169 158 134 213 180 213 191 143 96 67 140 114 54 345 294 232 44 163 249 223 200 183 182 178 174 180
193 178 190 191 148 143 129 167 210 210 196 99 114 92 175 158 189 170 140 180 243 113 121 170 268 169 186 176 174 189 166 166 197 200 245 45 230 252 75 68 315 161 167 169 178
197 190 185 186 161 154 173 199 215 166 170 136 92 127 220 223 150 145 201 200 193 181 188 173 264 83 120 144 145 185 197 160 106 42 65 216 283 264 109 90 111 153 166 181 184
205 208 193 176 167 172 198 202 216 168 122 133 203 170 175 190 157 189 178 194 202 187 185 204 180 268 154 107 33 177 154 96 2 193 248 249 251 232 215 205 180 182 189 185 187
202 210 181 169 172 189 206 220 219 171 143 165 208 192 190 167 185 199 214 227 202 189 174 150 144 206 131 209 177 156 175 69 130 150 184 231 248 209 195 176 192 198 193 187 190
237 196 207 161 198 199 205 196 174 200 192 228 191 199 172 179 179 202 204 215 168 147 184 189 136 167 204 273 297 195 188 164 162 212 251 165 248 222 249 199 182 190 194 194 191
236 161 103 198 203 209 209 222 228 196 199 207 209 192 167 190 220 199 191 193 163 167 171 180 195 101 355 326 308 219 194 148 102 80 191 166 247 138 179 166 196 177 185 189 194
141 225 191 199 127 216 199 214 212 180 209 200 195 161 170 204 210 219 202 180 190 192 166 166 166 199 221 187 143 188 187 181 165 169 176 228 207 214 193 192 184 193 198 188 190
187 186 212 194 216 218 180 164 205 180 207 206 209 214 195 214 212 222 156 128 179 195 154 155 213 172 212 244 159 173 172 183 201 206 199 225 227 195 196 196 197 197 168 177 195
155 153 126 293 211 209 208 189 200 211 169 200 233 201 215 222 213 214 193 181 180 161 170 13 204 138 196 158 317 203 221 190 200 215 235 210 249 182 199 109 143 182 175 189 200
100 348 136 171 199 197 202 200 206 196 211 217 202 170 223 222 106 51 62 71 104 155 152 165 145 157 202 156 133 265 215 189 175 195 190 210 229 161 181 183 179 189 187 205 197